Year,Month,Day,Hour,Minute,Value (Times are PST for temperature in C)
2016,08,23,15,17,25.80
2016,08,23,15,18,25.90
2016,08,23,15,19,25.90
2016,08,23,15,20,26.00
2016,08,23,15,21,26.10
2016,08,23,15,22,26.20
2016,08,23,15,23,26.30
2016,08,23,15,24,26.40
2016,08,23,15,25,26.50
2016,08,23,15,26,26.50
2016,08,23,15,27,26.60
2016,08,23,15,28,26.60
2016,08,23,15,29,26.60
2016,08,23,15,30,26.50
2016,08,23,15,31,26.40
2016,08,23,15,32,26.20
2016,08,23,15,33,26.10
2016,08,23,15,34,26.00
2016,08,23,15,35,25.90
2016,08,23,15,36,25.90
2016,08,23,15,37,25.80
2016,08,23,15,38,25.80
2016,08,23,15,39,25.80
2016,08,23,15,40,25.80
2016,08,23,15,41,25.80
2016,08,23,15,42,25.80
2016,08,23,15,43,25.80
2016,08,23,15,44,25.80
2016,08,23,15,45,25.80
2016,08,23,15,46,25.90
2016,08,23,15,47,25.90
2016,08,23,15,48,26.00
2016,08,23,15,49,26.10
2016,08,23,15,50,26.20
2016,08,23,15,51,26.20
2016,08,23,15,52,26.30
2016,08,23,15,53,26.30
2016,08,23,15,54,26.30
2016,08,23,15,55,26.30
2016,08,23,15,56,26.30
2016,08,23,15,57,26.20
2016,08,23,15,58,26.20
2016,08,23,15,59,26.20
2016,08,23,16,00,26.20
2016,08,23,16,01,26.20
2016,08,23,16,02,26.20
2016,08,23,16,03,26.20
2016,08,23,16,04,26.20
2016,08,23,16,05,26.20
2016,08,23,16,06,26.20
2016,08,23,16,07,26.20
2016,08,23,16,08,26.10
2016,08,23,16,09,26.10
2016,08,23,16,10,26.00
2016,08,23,16,11,26.00
2016,08,23,16,12,26.00
2016,08,23,16,13,25.90
2016,08,23,16,14,25.90
2016,08,23,16,15,25.90
2016,08,23,16,16,25.80
2016,08,23,16,17,25.70
2016,08,23,16,18,25.60
2016,08,23,16,19,25.50
2016,08,23,16,20,25.40
2016,08,23,16,21,25.40
2016,08,23,16,22,25.30
2016,08,23,16,23,25.30
2016,08,23,16,24,25.20
2016,08,23,16,25,25.20
2016,08,23,16,26,25.20
2016,08,23,16,27,25.20
2016,08,23,16,28,25.30
2016,08,23,16,29,25.30
2016,08,23,16,30,25.40
2016,08,23,16,31,25.50
2016,08,23,16,32,25.60
2016,08,23,16,33,25.70
2016,08,23,16,34,25.80
2016,08,23,16,35,25.80
2016,08,23,16,36,25.90
2016,08,23,16,37,25.90
2016,08,23,16,38,26.00
2016,08,23,16,39,26.00
2016,08,23,16,40,26.10
2016,08,23,16,41,26.10
2016,08,23,16,42,26.00
2016,08,23,16,43,25.90
2016,08,23,16,44,25.80
2016,08,23,16,45,25.70
2016,08,23,16,46,25.70
2016,08,23,16,47,25.70
2016,08,23,16,48,25.70
2016,08,23,16,49,25.70
2016,08,23,16,50,25.70
2016,08,23,16,51,25.70
2016,08,23,16,52,25.70
2016,08,23,16,53,25.80
2016,08,23,16,54,25.70
2016,08,23,16,55,25.70
2016,08,23,16,56,25.60
2016,08,23,16,57,25.50
2016,08,23,16,58,25.40
2016,08,23,16,59,25.40
2016,08,23,17,00,25.40
2016,08,23,17,01,25.40
2016,08,23,17,02,25.50
2016,08,23,17,03,25.50
2016,08,23,17,04,25.60
2016,08,23,17,05,25.60
2016,08,23,17,06,25.70
2016,08,23,17,07,25.70
2016,08,23,17,08,25.70
2016,08,23,17,09,25.70
2016,08,23,17,10,25.70
2016,08,23,17,11,25.70
2016,08,23,17,12,25.70
2016,08,23,17,13,25.70
2016,08,23,17,14,25.80
2016,08,23,17,15,25.80
2016,08,23,17,16,25.80
2016,08,23,17,17,25.80
2016,08,23,17,18,25.80
2016,08,23,17,19,25.80
2016,08,23,17,20,25.80
2016,08,23,17,21,25.70
2016,08,23,17,22,25.70
2016,08,23,17,23,25.70
2016,08,23,17,24,25.70
2016,08,23,17,25,25.60
2016,08,23,17,26,25.60
2016,08,23,17,27,25.50
2016,08,23,17,28,25.50
2016,08,23,17,29,25.30
2016,08,23,17,30,25.30
2016,08,23,17,31,25.30
2016,08,23,17,32,25.20
2016,08,23,17,33,25.20
2016,08,23,17,34,25.20
2016,08,23,17,35,25.20
2016,08,23,17,36,25.20
2016,08,23,17,37,25.20
2016,08,23,17,38,25.20
2016,08,23,17,39,25.20
2016,08,23,17,40,25.30
2016,08,23,17,41,25.30
2016,08,23,17,42,25.40
2016,08,23,17,43,25.40
2016,08,23,17,44,25.40
2016,08,23,17,45,25.40
2016,08,23,17,46,25.40
2016,08,23,17,47,25.30
2016,08,23,17,48,25.20
2016,08,23,17,49,25.10
2016,08,23,17,50,25.10
2016,08,23,17,51,25.10
2016,08,23,17,52,25.00
2016,08,23,17,53,24.90
2016,08,23,17,54,24.90
2016,08,23,17,55,24.90
2016,08,23,17,56,24.80
2016,08,23,17,57,24.80
2016,08,23,17,58,24.80
2016,08,23,17,59,24.80
2016,08,23,18,00,24.80
2016,08,23,18,01,24.90
2016,08,23,18,02,24.90
2016,08,23,18,03,24.90
2016,08,23,18,04,25.00
2016,08,23,18,05,25.00
2016,08,23,18,06,25.10
2016,08,23,18,07,25.20
2016,08,23,18,08,25.30
2016,08,23,18,09,25.30
2016,08,23,18,10,25.40
2016,08,23,18,11,25.40
2016,08,23,18,12,25.50
2016,08,23,18,13,25.60
2016,08,23,18,14,25.60
2016,08,23,18,15,25.70
2016,08,23,18,16,25.80
2016,08,23,18,17,25.90
2016,08,23,18,18,26.00
2016,08,23,18,19,26.10
2016,08,23,18,20,26.10
2016,08,23,18,21,26.10
2016,08,23,18,22,26.10
2016,08,23,18,23,26.10
2016,08,23,18,24,26.10
2016,08,23,18,25,26.20
2016,08,23,18,26,26.20
2016,08,23,18,27,26.20
2016,08,23,18,28,26.10
2016,08,23,18,29,26.10
2016,08,23,18,30,26.10
2016,08,23,18,31,26.10
2016,08,23,18,32,26.10
2016,08,23,18,33,26.00
2016,08,23,18,34,26.00
2016,08,23,18,35,26.00
2016,08,23,18,36,26.10
2016,08,23,18,37,26.10
2016,08,23,18,38,26.10
2016,08,23,18,39,26.10
2016,08,23,18,40,26.10
2016,08,23,18,41,26.20
2016,08,23,18,42,26.20
2016,08,23,18,43,26.20
2016,08,23,18,44,26.30
2016,08,23,18,45,26.20
2016,08,23,18,46,26.20
2016,08,23,18,47,26.10
2016,08,23,18,48,25.90
2016,08,23,18,49,25.80
2016,08,23,18,50,25.70
2016,08,23,18,51,25.60
2016,08,23,18,52,25.50
2016,08,23,18,53,25.30
2016,08,23,18,54,25.20
2016,08,23,18,55,25.00
2016,08,23,18,56,24.80
2016,08,23,18,57,24.60
2016,08,23,18,58,24.50
2016,08,23,18,59,24.30
2016,08,23,19,00,24.20
2016,08,23,19,01,24.10
2016,08,23,19,02,23.90
2016,08,23,19,03,23.90
2016,08,23,19,04,23.80
2016,08,23,19,05,23.70
2016,08,23,19,06,23.70
2016,08,23,19,07,23.60
2016,08,23,19,08,23.60
2016,08,23,19,09,23.50
2016,08,23,19,10,23.40
2016,08,23,19,11,23.40
2016,08,23,19,12,23.30
2016,08,23,19,13,23.30
2016,08,23,19,14,23.20
2016,08,23,19,15,23.20
2016,08,23,19,16,23.20
2016,08,23,19,17,23.30
2016,08,23,19,18,23.30
2016,08,23,19,19,23.30
2016,08,23,19,20,23.30
2016,08,23,19,21,23.30
2016,08,23,19,22,23.40
2016,08,23,19,23,23.40
2016,08,23,19,24,23.40
2016,08,23,19,25,23.50
2016,08,23,19,26,23.50
2016,08,23,19,27,23.60
2016,08,23,19,28,23.60
2016,08,23,19,29,23.60
2016,08,23,19,30,23.70
2016,08,23,19,31,23.70
2016,08,23,19,32,23.70
2016,08,23,19,33,23.70
2016,08,23,19,34,23.70
2016,08,23,19,35,23.70
2016,08,23,19,36,23.60
2016,08,23,19,37,23.50
2016,08,23,19,38,23.50
2016,08,23,19,39,23.30
2016,08,23,19,40,23.20
2016,08,23,19,41,23.10
2016,08,23,19,42,23.00
2016,08,23,19,43,22.80
2016,08,23,19,44,22.70
2016,08,23,19,45,22.60
2016,08,23,19,46,22.50
2016,08,23,19,47,22.40
2016,08,23,19,48,22.40
2016,08,23,19,49,22.30
2016,08,23,19,50,22.20
2016,08,23,19,51,22.20
2016,08,23,19,52,22.10
2016,08,23,19,53,22.10
2016,08,23,19,54,22.00
2016,08,23,19,55,22.00
2016,08,23,19,56,21.90
2016,08,23,19,57,21.90
2016,08,23,19,58,21.80
2016,08,23,19,59,21.80
2016,08,23,20,00,21.80
2016,08,23,20,01,21.80
2016,08,23,20,02,21.70
2016,08,23,20,03,21.70
2016,08,23,20,04,21.60
2016,08,23,20,05,21.60
2016,08,23,20,06,21.60
2016,08,23,20,07,21.50
2016,08,23,20,08,21.50
2016,08,23,20,09,21.40
2016,08,23,20,10,21.40
2016,08,23,20,11,21.30
2016,08,23,20,12,21.30
2016,08,23,20,13,21.20
2016,08,23,20,14,21.20
2016,08,23,20,15,21.20
2016,08,23,20,16,21.10
2016,08,23,20,17,21.10
2016,08,23,20,18,21.00
2016,08,23,20,19,20.90
2016,08,23,20,20,20.80
2016,08,23,20,21,20.80
2016,08,23,20,22,20.70
2016,08,23,20,23,20.60
2016,08,23,20,24,20.50
2016,08,23,20,25,20.50
2016,08,23,20,26,20.40
2016,08,23,20,27,20.30
2016,08,23,20,28,20.30
2016,08,23,20,29,20.20
2016,08,23,20,30,20.10
2016,08,23,20,31,20.10
2016,08,23,20,32,20.10
2016,08,23,20,33,20.00
2016,08,23,20,34,19.90
2016,08,23,20,35,19.90
2016,08,23,20,36,19.90
2016,08,23,20,37,19.80
2016,08,23,20,38,19.80
2016,08,23,20,39,19.80
2016,08,23,20,40,19.70
2016,08,23,20,41,19.70
2016,08,23,20,42,19.60
2016,08,23,20,43,19.60
2016,08,23,20,44,19.50
2016,08,23,20,45,19.50
2016,08,23,20,46,19.40
2016,08,23,20,47,19.30
2016,08,23,20,48,19.30
2016,08,23,20,49,19.20
2016,08,23,20,50,19.20
2016,08,23,20,51,19.10
2016,08,23,20,52,19.10
2016,08,23,20,53,19.00
2016,08,23,20,54,18.90
2016,08,23,20,55,18.90
2016,08,23,20,56,18.80
2016,08,23,20,57,18.80
2016,08,23,20,58,18.70
2016,08,23,20,59,18.70
2016,08,23,21,00,18.60
2016,08,23,21,01,18.60
2016,08,23,21,02,18.50
2016,08,23,21,03,18.50
2016,08,23,21,04,18.40
2016,08,23,21,05,18.40
2016,08,23,21,06,18.40
2016,08,23,21,07,18.30
2016,08,23,21,08,18.30
2016,08,23,21,09,18.20
2016,08,23,21,10,18.20
2016,08,23,21,11,18.10
2016,08,23,21,12,18.10
2016,08,23,21,13,18.00
2016,08,23,21,14,17.90
2016,08,23,21,15,17.90
2016,08,23,21,16,17.80
2016,08,23,21,17,17.70
2016,08,23,21,18,17.70
2016,08,23,21,19,17.60
2016,08,23,21,20,17.60
2016,08,23,21,21,17.60
2016,08,23,21,22,17.50
2016,08,23,21,23,17.50
2016,08,23,21,24,17.40
2016,08,23,21,25,17.40
2016,08,23,21,26,17.40
2016,08,23,21,27,17.30
2016,08,23,21,28,17.30
2016,08,23,21,29,17.30
2016,08,23,21,30,17.30
2016,08,23,21,31,17.20
2016,08,23,21,32,17.20
2016,08,23,21,33,17.20
2016,08,23,21,34,17.10
2016,08,23,21,35,17.10
2016,08,23,21,36,17.10
2016,08,23,21,37,17.10
2016,08,23,21,38,17.00
2016,08,23,21,39,17.00
2016,08,23,21,40,17.00
2016,08,23,21,41,16.90
2016,08,23,21,42,16.90
2016,08,23,21,43,16.90
2016,08,23,21,44,16.80
2016,08,23,21,45,16.80
2016,08,23,21,46,16.80
2016,08,23,21,47,16.80
2016,08,23,21,48,16.70
2016,08,23,21,49,16.70
2016,08,23,21,50,16.60
2016,08,23,21,51,16.60
2016,08,23,21,52,16.60
2016,08,23,21,53,16.50
2016,08,23,21,54,16.50
2016,08,23,21,55,16.40
2016,08,23,21,56,16.40
2016,08,23,21,57,16.40
2016,08,23,21,58,16.30
2016,08,23,21,59,16.30
2016,08,23,22,00,16.30
2016,08,23,22,01,16.30
2016,08,23,22,02,16.20
2016,08,23,22,03,16.20
2016,08,23,22,04,16.20
2016,08,23,22,05,16.20
2016,08,23,22,06,16.10
2016,08,23,22,07,16.10
2016,08,23,22,08,16.10
2016,08,23,22,09,16.00
2016,08,23,22,10,16.00
2016,08,23,22,11,15.90
2016,08,23,22,12,15.90
2016,08,23,22,13,15.90
2016,08,23,22,14,15.80
2016,08,23,22,15,15.80
2016,08,23,22,16,15.80
2016,08,23,22,17,15.80
2016,08,23,22,18,15.80
2016,08,23,22,19,15.70
2016,08,23,22,20,15.70
2016,08,23,22,21,15.70
2016,08,23,22,22,15.70
2016,08,23,22,23,15.70
2016,08,23,22,24,15.60
2016,08,23,22,25,15.60
2016,08,23,22,26,15.60
2016,08,23,22,27,15.60
2016,08,23,22,28,15.50
2016,08,23,22,29,15.50
2016,08,23,22,30,15.50
2016,08,23,22,31,15.40
2016,08,23,22,32,15.40
2016,08,23,22,33,15.40
2016,08,23,22,34,15.40
2016,08,23,22,35,15.30
2016,08,23,22,36,15.30
2016,08,23,22,37,15.30
2016,08,23,22,38,15.30
2016,08,23,22,39,15.30
2016,08,23,22,40,15.20
2016,08,23,22,41,15.20
2016,08,23,22,42,15.20
2016,08,23,22,43,15.20
2016,08,23,22,44,15.10
2016,08,23,22,45,15.10
2016,08,23,22,46,15.10
2016,08,23,22,47,15.10
2016,08,23,22,48,15.10
2016,08,23,22,49,15.00
2016,08,23,22,50,15.00
2016,08,23,22,51,15.00
2016,08,23,22,52,15.00
2016,08,23,22,53,14.90
2016,08,23,22,54,14.90
2016,08,23,22,55,14.90
2016,08,23,22,56,14.90
2016,08,23,22,57,14.90
2016,08,23,22,58,14.80
2016,08,23,22,59,14.80
2016,08,23,23,00,14.80
2016,08,23,23,01,14.80
2016,08,23,23,02,14.80
2016,08,23,23,03,14.80
2016,08,23,23,04,14.80
2016,08,23,23,05,14.70
2016,08,23,23,06,14.70
2016,08,23,23,07,14.70
2016,08,23,23,08,14.70
2016,08,23,23,09,14.70
2016,08,23,23,10,14.70
2016,08,23,23,11,14.60
2016,08,23,23,12,14.60
2016,08,23,23,13,14.60
2016,08,23,23,14,14.60
2016,08,23,23,15,14.60
2016,08,23,23,16,14.50
2016,08,23,23,17,14.50
2016,08,23,23,18,14.50
2016,08,23,23,19,14.50
2016,08,23,23,20,14.40
2016,08,23,23,21,14.40
2016,08,23,23,22,14.40
2016,08,23,23,23,14.40
2016,08,23,23,24,14.40
2016,08,23,23,25,14.40
2016,08,23,23,26,14.40
2016,08,23,23,27,14.30
2016,08,23,23,28,14.30
2016,08,23,23,29,14.30
2016,08,23,23,30,14.30
2016,08,23,23,31,14.30
2016,08,23,23,32,14.30
2016,08,23,23,33,14.20
2016,08,23,23,34,14.20
2016,08,23,23,35,14.20
2016,08,23,23,36,14.20
2016,08,23,23,37,14.20
2016,08,23,23,38,14.10
2016,08,23,23,39,14.10
2016,08,23,23,40,14.10
2016,08,23,23,41,14.10
2016,08,23,23,42,14.10
2016,08,23,23,43,14.10
2016,08,23,23,44,14.10
2016,08,23,23,45,14.00
2016,08,23,23,46,14.00
2016,08,23,23,47,14.00
2016,08,23,23,48,14.00
2016,08,23,23,49,14.00
2016,08,23,23,50,14.00
2016,08,23,23,51,13.90
2016,08,23,23,52,13.90
2016,08,23,23,53,13.90
2016,08,23,23,54,13.90
2016,08,23,23,55,13.90
2016,08,23,23,56,13.90
2016,08,23,23,57,13.80
2016,08,23,23,58,13.80
2016,08,23,23,59,13.80
